Regional Weather Roundup
Issued by NWS

Home | Current Version | Previous Version | Graphics & Text | Print | Product List | Glossary On
Versions: 1 2 3 4 5 6 7 8 9 10 11 12 13 14 15 16 17 18 19 20 21 22 23 24 25 26 27 28 29 30 31 32 33 34 35 36 37 38 39 40 41 42 43 44 45 46 47 48 49 50
000
ASUS43 KMKX 262259
RWRWI

WISCONSIN REGIONAL WEATHER ROUNDUP
NATIONAL WEATHER SERVICE MILWAUKEE/SULLIVAN WI
600 PM CDT THU APR 26 2018

NOTE: "FAIR" INDICATES FEW OR NO CLOUDS BELOW 12,000 FEET WITH NO
SIGNIFICANT WEATHER AND/OR OBSTRUCTIONS TO VISIBILITY.

WIZ001-002-006>008-014>016-023>028-270000-
NORTHWEST WISCONSIN

CITY           SKY/WX    TMP DP  RH WIND       PRES   REMARKS
SUPERIOR ARPT  FAIR      56  31  37 NE9       29.89S
ASHLAND        PTSUNNY   52  34  50 NE8       29.90R
HAYWARD        FAIR      56  33  42 N14       29.87R
SIREN          FAIR      61  26  26 N10G21    29.87R
CUMBERLAND     FAIR      55  30  38 N12       29.84R
RICE LAKE      PTSUNNY   60  31  33 N9G21     29.86R
CHETEK         FAIR      60  34  37 N7        29.83R
LADYSMITH      PTSUNNY   57  36  45 N14G22    29.84R
EAU CLAIRE     NOT AVBL
MENOMONIE      FAIR      64  31  29 NW17      29.82S
NEW RICHMOND   FAIR      62  28  27 NW14G23   29.86R
OSCEOLA        FAIR      62  32  32 NW14G20   29.89R
$$

WIZ003>005-009-010-017-018-270000-
NORTH CENTRAL WISCONSIN

CITY           SKY/WX    TMP DP  RH WIND       PRES   REMARKS
MANITOWISH WTR CLOUDY    43  34  70 N9        29.85R
ARBOR VITAE    CLOUDY    46  34  63 N16       29.84R
WOODRUFF       CLOUDY    46  34  63 N16       29.84R
RHINELANDER    CLOUDY    51  33  50 N14G20    29.81R
EAGLE RIVER    FAIR      47  31  54 N16G24    29.83R
LAND O LAKES   CLOUDY    43  33  67 N10G20    29.86R
PHILLIPS       FAIR      49  34  56 N15G23    29.84R
TOMAHAWK       CLOUDY    55  32  41 NW15G21   29.80R
MEDFORD        CLOUDY    59  36  42 NW10      29.77R
MERRILL        CLOUDY    61  32  33 W7        29.76S
$$

WIZ029-030-035-036-043>047-270000-
CENTRAL WISCONSIN

CITY           SKY/WX    TMP DP  RH WIND       PRES   REMARKS
WAUSAU         CLOUDY    63  31  30 NW8       29.74F
MOSINEE        PTSUNNY   63  30  29 SW10      29.77F
MARSHFIELD     CLOUDY    62  33  33 W9        29.75F
STEVENS POINT  FAIR      64  28  26 SW12G17   29.78S
WAUPACA        FAIR      69  21  16 SW15      29.77F
WAUTOMA        PTSUNNY   67  26  21 W15       29.78S
WISC RAPIDS    FAIR      67  27  22 W13G20    29.77F
CAMP DOUGLAS   FAIR      68  31  25 W12       29.77F
$$

WIZ011>013-019>022-031-037>040-048>050-270000-
NORTHEAST WISCONSIN

CITY           SKY/WX    TMP DP  RH WIND       PRES   REMARKS
ANTIGO         CLOUDY    59  33  37 W8        29.77F
SHAWANO        PTSUNNY   65  31  28 NW6       29.76F
OCONTO         FAIR      65  31  28 SW13G20   29.76S
STURGEON BAY   FAIR      54  38  54 S10       29.78F
GREEN BAY      FAIR      66  36  32 W9        29.77F
MANITOWOC      FAIR      53  35  50 S13       29.80F
APPLETON       PTSUNNY   64  23  20 SW8       29.76F
CLINTONVILLE   PTSUNNY   65  25  21 NW10      29.77S
OSHKOSH        FAIR      65  31  28 SW9       29.78S
$$

WIZ032>034-041-042-053>061-270000-
SOUTHWEST WISCONSIN

CITY           SKY/WX    TMP DP  RH WIND       PRES   REMARKS
LA CROSSE      PTSUNNY   68  41  37 NW13      29.78F
SPARTA         FAIR      68  33  27 W10G22    29.79F
VIROQUA        FAIR      65  38  36 W12G21    29.81S
BOSCOBEL       FAIR      70  31  23 W13G22    29.80S
PRAIRIE DU CHI FAIR      70  27  20 NW14G21   29.81R
PLATTEVILLE    FAIR      71  28  20 W13G22    29.82S
$$

WIZ056-057-062-063-064-067-068-270000-
SOUTH CENTRAL WISCONSIN

CITY           SKY/WX    TMP DP  RH WIND       PRES   REMARKS
REEDSBURG      FAIR      67  30  24 W10G17    29.78F
BARABOO/DELLS  FAIR      67  22  18 W14       29.79S
LONE ROCK      NOT AVBL
MINERAL POINT  FAIR      70  27  19 W13G18    29.81F
MADISON        PTSUNNY   66  31  27 VRB5      29.80F
MIDDLETON      FAIR      70  25  18 SW9G17    29.80F
WATERTOWN      FAIR      66  31  27 SW9       29.80F
MONROE         FAIR      66  27  22 W13       29.82F
JANESVILLE     PTSUNNY   70  25  18 W6        29.82F
$$

WIZ051-052-058>065-066-070>072-270000-
SOUTHEAST WISCONSIN

CITY           SKY/WX    TMP DP  RH WIND       PRES   REMARKS
MILWAUKEE      PTSUNNY   61  32  33 S12       29.83F
WAUKESHA       SUNNY     63  28  27 SW9       29.83F
MILWAUKEE/TIMM SUNNY     64  21  19 W9G16     29.82F
RACINE         FAIR      54  26  34 S13       29.85F
BURLINGTON     FAIR      66  29  25 W10G17    29.83S
KENOSHA        FAIR      59  29  31 S10       29.84S
FOND DU LAC    FAIR      65  26  23 SW10      29.79S
SHEBOYGAN      FAIR      59  37  44 S9        29.80S
WEST BEND      FAIR      63  27  25 W8G17     29.80F
JUNEAU         FAIR      65  26  23 SW14      29.82S
$$

LSZ147-162-270000-
LAKE SUPERIOR

STATION/POSITION TIME  TEMP    WIND        PRES    WAVE
                       AIR SEA DIR/SP/G            HT/PER
                 (UTC) (F)     (DEG/KT/KT) (MB)    (FT/S)
DEVILS ISLAND    2200   46     110/  6/  7 1012.5S
SAXON HARBOR     2230   42     310/  3/  4 1012.2R
$$

LMZ867-665-643>646-270000-
LAKE MICHIGAN

STATION/POSITION TIME  TEMP    WIND        PRES    WAVE
                       AIR SEA DIR/SP/G            HT/PER
                 (UTC) (F)     (DEG/KT/KT) (MB)    (FT/S)
NORTHPORT PIER   2240   47                 1008.1F
KEWAUNEE LAKESHO 2230   44     170/ 15/ 18 1008.5F
SHEBOYGAN LAKESH 2200   43     170/ 23/ 24 1009.7F
PORT WASHINGTON  2240   46     180/  9/ 11 1010.8F
MILWAUKEE LAKESH 2230   45     150/ 20/ 21   N/A
KENOSHA   LAKESH 2200   48                 1010.8
$$

TC  - TEMPERATURE IN CELSIUS
VSB - VISIBILITY IN STATUTE MILES
WCI - WIND CHILL INDEX
HX  - HEAT INDEX





USA.gov is the U.S. government's official web portal to all federal, state and local government web resources and services.